Regional Weather Roundup
Issued by NWS

Home | Current Version | Previous Version | Graphics & Text | Print | Product List | Glossary On
Versions: 1 2 3 4 5 6 7 8 9 10 11 12 13 14 15 16 17 18 19 20 21 22 23 24 25 26 27 28 29 30 31 32 33 34 35 36 37 38 39 40 41 42 43 44 45 46 47 48 49 50
000
ASUS45 KSLC 161810
RWRUT

UTAH REGIONAL WEATHER ROUNDUP
NATIONAL WEATHER SERVICE SALT LAKE CITY UT
1200 PM MDT TUE SEP 16 2014

UTZ001>011-023>025-161900-

NORTHERN UTAH

CITY           SKY/WX    TMP DP  RH WIND       PRES   REMARKS
HILL AFB       PTSUNNY   77  44  30 E10       30.12S
LOGAN          SUNNY     70  44  39 VRB3      30.12F
OGDEN          MOSUNNY   83  42  23 NE5       30.09F
PROVO AIRPORT  SUNNY     79  46  31 VRB5      30.15F
SALT LAKE CITY PTSUNNY   85  39  19 S12       30.07F
VERNAL         SUNNY     71  44  37 CALM      30.22F
WENDOVER       SUNNY     79  39  24 E9        30.08F
HEBER CITY     SUNNY     70  41  35 CALM      30.21F
WEST JORDAN    SUNNY     81  43  26 SE7       30.13F

$$

UTZ012>022-026-027-161900-

SOUTHERN UTAH

CITY           SKY/WX    TMP DP  RH WIND       PRES   REMARKS
BRYCE CANYON   SUNNY     70  46  42 SE8       30.38F
CEDAR CITY     MOSUNNY   82  40  22 SW12      30.19F
MILFORD        SUNNY     82  42  24 S13       30.15F
MOAB/CYNLANDS  SUNNY     82  45  27 S3        30.14F
PRICE          SUNNY     77  38  24 SE9       30.26F
ST GEORGE      CLEAR     84  45  24 W5        30.04F
KANAB            N/A     84  46  26 E3        30.19F

$$

REGIONAL REPORTS     COLORADO/ARIZONA

CITY           SKY/WX    TMP DP  RH WIND       PRES   REMARKS
CRAIG, CO      SUNNY     75  40  28 CALM      30.27F
GRAND JUNCTION SUNNY     76  42  29 VRB5      30.20F
RIFLE          SUNNY     72  43  35 VRB3      30.26F
MONTROSE       SUNNY     78  45  30 NW6       30.27F
CORTEZ         SUNNY     77  50  38 VRB3      30.28F
PAGE, AZ       SUNNY     84  50  30 NE5       30.15F
GRAND CANYON   SUNNY     76  47  35 CALM      30.30F
KINGMAN        SUNNY     85  61  44 SW10      30.07F
FLAGSTAFF      PTSUNNY   70  50  49 CALM      30.33F

$$

REGIONAL REPORTS    NEVADA/IDAHO/WYOMING

CITY           SKY/WX    TMP DP  RH WIND       PRES   REMARKS
LAS VEGAS, NV  MOSUNNY   94  48  20 VRB3      29.90F HX  90
ELY            SUNNY     81  33  17 W9G21     30.22F
ELKO           SUNNY     79  33  19 CALM      30.11F
POCATELLO, ID  MOSUNNY   82  38  20 E13       30.08F
BURLEY         MOSUNNY   78  48  34 N8        30.04F
EVANSTON, WY   SUNNY     76  36  23 W22G28    30.30F
ROCK SPRINGS   MOSUNNY   74  33  22 CALM      30.28F

$$


USA.gov is the U.S. government's official web portal to all federal, state and local government web resources and services.